TimeEDT,TemperatureF,Dew PointF,Humidity,Sea Level PressureIn,VisibilityMPH,Wind Direction,Wind SpeedMPH,Gust SpeedMPH,PrecipitationIn,Events,Conditions,WindDirDegrees,DateUTC
12:53 AM,68.0,63.0,84,30.21,10.0,South,3.5,-,N/A,,Clear,180,2013-05-30 04:53:00
1:53 AM,66.9,63.0,87,30.21,10.0,South,4.6,-,N/A,,Clear,190,2013-05-30 05:53:00
2:53 AM,66.0,63.0,90,30.21,10.0,South,3.5,-,N/A,,Clear,180,2013-05-30 06:53:00
3:53 AM,64.0,62.1,93,30.20,10.0,Calm,Calm,-,N/A,,Clear,0,2013-05-30 07:53:00
4:53 AM,62.1,60.1,93,30.22,2.5,Calm,Calm,-,N/A,,Clear,0,2013-05-30 08:53:00
5:03 AM,62.6,60.8,94,30.24,1.2,Calm,Calm,-,N/A,,Clear,0,2013-05-30 09:03:00
5:13 AM,60.8,60.8,100,30.24,0.8,Calm,Calm,-,N/A,,Clear,0,2013-05-30 09:13:00
5:21 AM,62.6,60.8,94,30.24,0.2,Calm,Calm,-,N/A,Fog,Fog,0,2013-05-30 09:21:00
5:53 AM,63.0,61.0,93,30.24,0.5,Calm,Calm,-,N/A,Fog,Fog,0,2013-05-30 09:53:00
6:06 AM,60.8,60.8,100,30.26,3.0,Calm,Calm,-,N/A,,Mostly Cloudy,0,2013-05-30 10:06:00
6:11 AM,62.6,60.8,94,30.26,1.5,Calm,Calm,-,N/A,,Overcast,0,2013-05-30 10:11:00
6:16 AM,62.6,60.8,94,30.26,0.2,Calm,Calm,-,N/A,Fog,Fog,0,2013-05-30 10:16:00
6:53 AM,62.1,61.0,96,30.25,1.0,Calm,Calm,-,N/A,,Mist,0,2013-05-30 10:53:00
6:57 AM,62.6,62.6,100,30.27,3.0,ESE,3.5,-,N/A,,Mostly Cloudy,120,2013-05-30 10:57:00
7:06 AM,62.6,62.6,100,30.26,1.0,Calm,Calm,-,N/A,,Mist,0,2013-05-30 11:06:00
7:24 AM,64.4,62.6,94,30.27,1.0,Calm,Calm,-,N/A,,Mist,0,2013-05-30 11:24:00
7:53 AM,66.9,66.0,97,30.26,1.0,Calm,Calm,-,N/A,,Mist,0,2013-05-30 11:53:00
8:00 AM,66.2,64.4,94,30.27,10.0,Calm,Calm,-,N/A,,Clear,0,2013-05-30 12:00:00
8:53 AM,73.0,64.9,76,30.27,10.0,Calm,Calm,-,N/A,,Clear,0,2013-05-30 12:53:00
9:53 AM,78.1,64.0,62,30.26,10.0,SSW,9.2,-,N/A,,Clear,200,2013-05-30 13:53:00
10:53 AM,80.1,63.0,56,30.26,10.0,SSW,9.2,-,N/A,,Partly Cloudy,200,2013-05-30 14:53:00
11:53 AM,82.0,63.0,52,30.25,10.0,WSW,8.1,-,N/A,,Partly Cloudy,240,2013-05-30 15:53:00
12:53 PM,84.9,63.0,48,30.24,10.0,SSW,9.2,-,N/A,,Scattered Clouds,210,2013-05-30 16:53:00
1:53 PM,84.9,62.1,46,30.22,10.0,SW,4.6,-,N/A,,Partly Cloudy,230,2013-05-30 17:53:00
2:53 PM,87.1,61.0,41,30.19,10.0,South,6.9,-,N/A,,Partly Cloudy,190,2013-05-30 18:53:00
3:53 PM,87.1,61.0,41,30.18,10.0,SW,4.6,-,N/A,,Partly Cloudy,230,2013-05-30 19:53:00
4:53 PM,87.1,61.0,41,30.16,10.0,SW,4.6,-,N/A,,Partly Cloudy,220,2013-05-30 20:53:00
5:53 PM,86.0,62.1,44,30.16,10.0,SE,4.6,-,N/A,,Partly Cloudy,140,2013-05-30 21:53:00
6:53 PM,86.0,63.0,46,30.16,10.0,ESE,3.5,-,N/A,,Clear,120,2013-05-30 22:53:00
7:53 PM,84.0,64.9,53,30.16,10.0,SE,5.8,-,N/A,,Partly Cloudy,140,2013-05-30 23:53:00
8:53 PM,80.1,66.9,64,30.17,10.0,SSE,9.2,-,N/A,,Mostly Cloudy,150,2013-05-31 00:53:00
9:53 PM,78.1,64.9,64,30.19,10.0,SSE,9.2,-,N/A,,Scattered Clouds,160,2013-05-31 01:53:00
10:53 PM,75.0,64.9,71,30.19,10.0,SSE,5.8,-,N/A,,Clear,160,2013-05-31 02:53:00
11:53 PM,73.0,66.0,79,30.20,10.0,South,6.9,-,N/A,,Clear,180,2013-05-31 03:53:00